TimeCST,TemperatureF,Dew PointF,Humidity,Sea Level PressureIn,VisibilityMPH,Wind Direction,Wind SpeedMPH,Gust SpeedMPH,PrecipitationIn,Events,Conditions,WindDirDegrees,DateUTC
12:15 AM,57.4,54.9,91,30.05,10.0,NW,9.2,-,N/A,,Clear,320,2014-01-21 06:15:00
12:35 AM,57.4,50.7,78,30.05,10.0,NNW,15.0,-,N/A,,Clear,340,2014-01-21 06:35:00
12:55 AM,57.4,47.5,70,30.06,10.0,NNW,16.1,-,N/A,,Clear,340,2014-01-21 06:55:00
1:15 AM,56.8,45.7,66,30.07,10.0,NNW,12.7,-,N/A,,Clear,330,2014-01-21 07:15:00
1:35 AM,55.8,43.9,64,30.08,10.0,NNW,15.0,-,N/A,,Clear,340,2014-01-21 07:35:00
1:55 AM,55.8,41.5,59,30.08,10.0,NNW,17.3,-,N/A,,Clear,340,2014-01-21 07:55:00
2:15 AM,55.9,39.6,54,30.09,10.0,NNW,18.4,-,N/A,,Clear,340,2014-01-21 08:15:00
2:35 AM,56.3,38.3,51,30.10,10.0,North,18.4,25.3,N/A,,Clear,350,2014-01-21 08:35:00
2:55 AM,56.3,37.8,50,30.11,10.0,North,19.6,25.3,N/A,,Clear,350,2014-01-21 08:55:00
3:15 AM,56.1,36.9,48,30.13,10.0,North,20.7,27.6,N/A,,Clear,350,2014-01-21 09:15:00
3:35 AM,56.3,35.8,46,30.13,10.0,North,21.9,29.9,N/A,,Clear,350,2014-01-21 09:35:00
3:55 AM,55.8,35.1,46,30.15,10.0,North,19.6,26.5,N/A,,Clear,360,2014-01-21 09:55:00
4:15 AM,55.6,33.8,44,30.15,10.0,North,23.0,32.2,N/A,,Clear,360,2014-01-21 10:15:00
4:35 AM,55.2,32.7,43,30.17,10.0,North,20.7,31.1,N/A,,Clear,360,2014-01-21 10:35:00
4:55 AM,54.5,32.0,42,30.17,10.0,North,25.3,31.1,N/A,,Clear,10,2014-01-21 10:55:00
5:15 AM,53.6,32.0,44,30.19,10.0,North,19.6,31.1,N/A,,Clear,10,2014-01-21 11:15:00
5:35 AM,53.1,31.6,44,30.20,10.0,North,21.9,28.8,N/A,,Clear,10,2014-01-21 11:35:00
5:55 AM,52.7,31.1,44,30.21,10.0,North,20.7,28.8,N/A,,Clear,10,2014-01-21 11:55:00
6:15 AM,52.7,30.2,42,30.22,10.0,North,21.9,27.6,N/A,,Clear,360,2014-01-21 12:15:00
6:35 AM,52.5,29.1,41,30.25,10.0,North,18.4,27.6,N/A,,Clear,10,2014-01-21 12:35:00
6:55 AM,52.5,27.5,38,30.26,10.0,North,20.7,29.9,N/A,,Clear,360,2014-01-21 12:55:00
7:15 AM,52.0,27.1,38,30.26,10.0,North,24.2,31.1,N/A,,Clear,360,2014-01-21 13:15:00
7:35 AM,51.8,27.0,38,30.28,10.0,North,21.9,29.9,N/A,,Clear,10,2014-01-21 13:35:00
7:55 AM,51.8,26.8,38,30.29,10.0,North,24.2,33.4,N/A,,Clear,10,2014-01-21 13:55:00
8:15 AM,51.8,27.9,40,30.30,10.0,North,20.7,28.8,N/A,,Clear,360,2014-01-21 14:15:00
8:35 AM,52.9,27.7,38,30.31,10.0,North,26.5,32.2,N/A,,Clear,10,2014-01-21 14:35:00
8:55 AM,54.0,27.5,36,30.33,10.0,North,25.3,36.8,N/A,,Clear,10,2014-01-21 14:55:00
9:15 AM,54.7,27.0,34,30.34,10.0,North,21.9,32.2,N/A,,Clear,10,2014-01-21 15:15:00
9:35 AM,55.6,27.1,34,30.35,10.0,North,24.2,33.4,N/A,,Clear,10,2014-01-21 15:35:00
9:55 AM,57.0,27.9,33,30.35,10.0,North,21.9,32.2,N/A,,Clear,10,2014-01-21 15:55:00
10:15 AM,57.7,26.6,30,30.36,10.0,North,23.0,32.2,N/A,,Clear,10,2014-01-21 16:15:00
10:35 AM,58.1,26.8,30,30.37,10.0,North,21.9,34.5,N/A,,Clear,10,2014-01-21 16:35:00
10:55 AM,59.4,26.8,29,30.37,10.0,North,21.9,34.5,N/A,,Clear,10,2014-01-21 16:55:00
11:15 AM,59.9,26.4,28,30.36,10.0,NNE,24.2,35.7,N/A,,Clear,20,2014-01-21 17:15:00
11:35 AM,60.4,26.8,28,30.36,10.0,North,19.6,31.1,N/A,,Clear,10,2014-01-21 17:35:00
11:55 AM,61.9,26.4,26,30.35,10.0,North,23.0,29.9,N/A,,Clear,360,2014-01-21 17:55:00
12:15 PM,61.9,25.5,25,30.34,10.0,North,23.0,31.1,N/A,,Clear,360,2014-01-21 18:15:00
12:35 PM,62.6,25.9,25,30.33,10.0,North,20.7,29.9,N/A,,Clear,360,2014-01-21 18:35:00
12:55 PM,63.3,26.4,25,30.32,10.0,North,16.1,25.3,N/A,,Clear,350,2014-01-21 18:55:00
1:15 PM,63.0,25.9,24,30.31,10.0,NNW,21.9,28.8,N/A,,Clear,340,2014-01-21 19:15:00
1:35 PM,63.5,25.9,24,30.30,10.0,North,19.6,26.5,N/A,,Clear,350,2014-01-21 19:35:00
1:55 PM,64.0,25.7,23,30.29,10.0,North,16.1,25.3,N/A,,Clear,360,2014-01-21 19:55:00
2:15 PM,64.6,25.5,23,30.29,10.0,NNW,15.0,24.2,N/A,,Clear,330,2014-01-21 20:15:00
2:35 PM,63.9,25.2,23,30.28,10.0,NW,16.1,20.7,N/A,,Clear,320,2014-01-21 20:35:00
2:55 PM,64.6,25.5,23,30.28,10.0,North,13.8,24.2,N/A,,Clear,350,2014-01-21 20:55:00
3:15 PM,64.0,25.5,23,30.27,10.0,NW,17.3,21.9,N/A,,Clear,320,2014-01-21 21:15:00
3:35 PM,63.7,24.8,23,30.27,10.0,NNW,19.6,24.2,N/A,,Clear,330,2014-01-21 21:35:00
3:55 PM,63.7,25.2,23,30.27,10.0,NNW,13.8,-,N/A,,Clear,330,2014-01-21 21:55:00
4:15 PM,63.1,24.1,23,30.27,10.0,NNW,16.1,23.0,N/A,,Clear,340,2014-01-21 22:15:00
4:35 PM,62.6,25.2,24,30.28,10.0,NNW,16.1,-,N/A,,Clear,330,2014-01-21 22:35:00
4:55 PM,61.7,25.5,25,30.28,10.0,NNW,15.0,-,N/A,,Clear,340,2014-01-21 22:55:00
5:15 PM,60.8,24.4,25,30.28,10.0,NW,13.8,-,N/A,,Clear,320,2014-01-21 23:15:00
5:35 PM,59.2,25.0,27,30.28,10.0,NNW,9.2,-,N/A,,Clear,340,2014-01-21 23:35:00
5:55 PM,57.0,24.8,29,30.28,10.0,North,9.2,-,N/A,,Clear,350,2014-01-21 23:55:00
6:15 PM,53.6,24.6,33,30.28,10.0,North,6.9,-,N/A,,Clear,360,2014-01-22 00:15:00
6:35 PM,50.5,24.6,36,30.28,10.0,North,5.8,-,N/A,,Clear,350,2014-01-22 00:35:00
6:55 PM,51.4,23.9,34,30.28,10.0,North,5.8,-,N/A,,Clear,350,2014-01-22 00:55:00
7:15 PM,49.1,24.8,39,30.28,10.0,North,6.9,-,N/A,,Clear,350,2014-01-22 01:15:00
7:35 PM,48.4,23.7,38,30.28,10.0,North,6.9,-,N/A,,Clear,350,2014-01-22 01:35:00
7:55 PM,49.5,24.8,38,30.28,10.0,North,5.8,-,N/A,,Clear,350,2014-01-22 01:55:00
8:15 PM,46.8,25.0,43,30.28,10.0,North,5.8,-,N/A,,Clear,360,2014-01-22 02:15:00
8:35 PM,47.3,25.2,42,30.28,10.0,Calm,Calm,-,N/A,,Clear,0,2014-01-22 02:35:00
8:55 PM,45.1,25.3,46,30.28,10.0,Calm,Calm,-,N/A,,Clear,0,2014-01-22 02:55:00
9:15 PM,46.2,24.6,43,30.27,10.0,NNE,4.6,-,N/A,,Clear,30,2014-01-22 03:15:00
9:35 PM,45.5,25.0,45,30.27,10.0,Calm,Calm,-,N/A,,Clear,0,2014-01-22 03:35:00
9:55 PM,45.1,25.3,46,30.27,10.0,Calm,Calm,-,N/A,,Clear,0,2014-01-22 03:55:00
10:15 PM,44.6,27.5,51,30.27,10.0,Calm,Calm,-,N/A,,Clear,0,2014-01-22 04:15:00
10:35 PM,45.5,28.8,52,30.27,10.0,NNE,3.5,-,N/A,,Clear,30,2014-01-22 04:35:00
10:55 PM,43.5,28.0,54,30.27,10.0,NNE,4.6,-,N/A,,Clear,30,2014-01-22 04:55:00
11:15 PM,42.1,28.6,59,30.26,10.0,NE,3.5,-,N/A,,Clear,40,2014-01-22 05:15:00
11:35 PM,41.5,29.1,61,30.26,10.0,NE,4.6,-,N/A,,Clear,50,2014-01-22 05:35:00
11:55 PM,40.8,30.0,65,30.25,10.0,NE,5.8,-,N/A,,Clear,50,2014-01-22 05:55:00